Location: Houhaj�rvi
(61.2667°N, 23.0167°E)
Time: 16:52:59
(UTC+00:00)

NOAA 11 - Pass Details

Date: 13 December 2019
Orbit: 833 x 849 km, 98.4° (Epoch: 21 January)

Event Time Altitude Azimuth Distance (km) Brightness Sun altitude
Rises 16:21:33 0° 151° (SSE) 3,395 7.2 -20.1°
Reaches altitude 10° 16:23:54 10° 150° (SSE) 2,466 6.4 -20.4°
Maximum altitude 16:29:21 73° 67° (ENE) 890 4.1 -21.0°
Drops below altitude 10° 16:34:52 10° 344° (NNW) 2,490 6.7 -21.7°
Sets 16:37:15 0° 342° (NNW) 3,430 7.5 -22.0°
